Date,TemperatureHighF,TemperatureAvgF,TemperatureLowF,DewpointHighF,DewpointAvgF,DewpointLowF,HumidityHigh,HumidityAvg,HumidityLow,PressureMaxIn,PressureMinIn,WindSpeedMaxMPH,WindSpeedAvgMPH,GustSpeedMaxMPH,PrecipitationSumIn
2012-1-1,32,28,22,27,18,13,81,66,49,30.56,30.01,26,7,26,0.00
2012-1-2,25,19,13,13,10,7,78,67,48,30.67,30.46,14,2,14,0.00
2012-1-3,42,29,15,30,18,8,75,65,56,30.45,29.92,16,3,18,0.00
2012-1-4,54,38,26,32,28,22,86,69,41,30.21,30.02,13,2,13,0.00
2012-1-5,63,42,28,36,29,23,88,63,36,30.00,29.68,7,0,7,0.00
2012-1-6,47,37,28,29,26,21,88,65,41,30.02,29.70,14,2,14,0.00
2012-1-7,39,28,18,26,21,15,91,75,57,30.26,30.02,7,0,7,0.00
2012-1-8,44,30,15,32,23,13,93,77,55,30.33,30.16,13,1,13,0.00
2012-1-9,52,36,27,31,27,22,89,70,45,30.16,29.99,9,1,9,0.00
2012-1-10,58,37,25,36,28,22,92,73,40,30.01,29.61,8,0,8,0.00
2012-1-11,37,24,9,34,19,3,93,81,70,30.07,29.59,25,6,25,0.00
2012-1-12,36,9,4,21,3,0,80,75,56,30.10,29.99,19,5,19,0.00
2012-1-13,22,12,-1,18,3,-5,87,69,42,30.14,29.97,6,1,7,0.00
2012-1-14,36,26,19,26,22,17,93,82,64,30.11,29.99,13,1,13,0.00
2012-1-15,47,34,26,27,23,19,82,64,44,30.06,29.64,17,3,17,0.00
2012-1-16,34,22,13,26,15,10,86,74,61,30.08,29.72,15,4,15,0.00
2012-1-17,14,8,0,10,3,-4,87,80,69,30.40,30.08,17,3,17,0.00
2012-1-18,31,13,0,18,6,-8,84,74,52,30.25,29.83,17,4,17,0.00
2012-1-19,6,1,-6,-4,-10,-14,72,62,48,30.30,30.12,11,2,11,0.00
2012-1-20,14,7,-2,8,2,-5,86,80,64,30.33,30.05,10,1,10,0.00
2012-1-21,21,10,-5,18,7,-9,89,86,82,30.32,29.66,24,4,26,0.00
2012-1-22,30,26,21,28,24,18,95,91,89,29.66,29.49,16,2,16,0.00
2012-1-23,26,22,20,23,18,16,92,86,82,30.07,29.60,17,4,17,0.00
2012-1-24,27,23,19,23,20,18,94,90,83,30.28,30.07,9,1,9,0.00
2012-1-25,30,28,25,29,27,23,97,95,92,30.26,29.84,15,2,15,0.00
2012-1-26,39,35,27,33,29,25,97,81,67,29.89,29.84,15,3,15,0.00
2012-1-27,36,29,17,33,24,15,96,84,65,30.15,29.81,10,3,21,0.00
2012-1-28,35,27,18,24,20,14,91,74,62,30.14,30.06,5,2,15,0.00
2012-1-29,33,25,12,24,18,9,89,76,67,30.23,29.82,15,2,15,0.00
2012-1-30,50,40,26,35,29,22,89,67,50,29.83,29.58,9,1,9,0.00
2012-1-31,47,40,28,38,33,26,94,77,63,30.01,29.61,11,2,11,0.00
2012-2-1,50,35,25,37,29,23,96,81,57,30.16,30.01,5,0,5,0.00
2012-2-2,51,35,20,35,29,18,95,79,49,30.31,30.16,7,0,7,0.00
2012-2-3,38,34,30,33,31,28,95,90,84,30.42,30.28,13,2,14,0.00
2012-2-4,44,32,25,28,25,21,95,80,40,30.46,30.37,11,2,14,0.00
2012-2-5,37,28,23,30,26,22,96,92,75,30.42,30.27,10,1,10,0.00
2012-2-6,49,31,21,35,26,19,96,84,53,30.32,30.11,16,1,16,0.00
2012-2-7,29,23,11,25,18,7,86,79,68,30.59,30.33,12,2,14,0.00
2012-2-8,32,18,4,16,10,2,93,74,50,30.58,30.34,4,0,7,0.00
2012-2-9,41,27,14,28,21,11,93,78,58,30.34,29.98,17,2,18,0.00
2012-2-10,32,11,1,27,0,-8,84,63,49,30.73,30.33,17,4,19,0.00
2012-2-11,20,8,-2,-1,-5,-9,74,58,37,30.84,30.63,12,2,12,0.00
2012-2-12,33,17,1,12,4,-4,82,60,31,30.63,30.04,17,2,17,0.00
2012-2-13,28,25,20,25,20,12,94,83,61,30.04,29.74,14,1,14,0.00
2012-2-14,43,28,16,35,24,14,95,86,69,29.83,29.69,8,1,8,0.00
2012-2-15,41,31,24,36,27,20,96,88,74,30.14,29.84,9,1,9,0.00
2012-2-16,44,31,22,27,22,17,88,71,39,30.23,30.01,10,2,10,0.00
2012-2-17,37,29,19,28,20,14,91,70,42,30.25,29.98,15,2,16,0.00
2012-2-18,42,28,12,25,18,10,89,69,44,30.28,30.12,10,1,10,0.00
2012-2-19,45,33,22,31,24,18,84,72,55,30.12,29.92,18,4,18,0.00
2012-2-20,36,34,32,36,30,26,98,85,70,30.07,29.60,17,3,17,0.00
2012-2-21,38,33,28,32,27,24,95,81,64,29.76,29.58,15,3,15,0.00
2012-2-22,46,37,31,36,31,27,92,80,60,29.58,29.37,10,1,10,0.00
2012-2-23,36,32,26,32,30,23,96,91,79,29.83,29.34,11,1,11,0.00
2012-2-24,28,23,15,25,19,10,93,84,74,30.25,29.83,16,2,16,0.00
2012-2-25,25,17,3,19,11,0,90,79,61,30.32,29.79,18,2,18,0.00
2012-2-26,35,26,17,31,20,12,87,78,66,30.27,29.58,20,6,20,0.00
2012-2-27,27,20,10,23,14,7,86,79,66,30.54,30.27,14,2,14,0.00
2012-2-28,35,32,27,34,30,23,97,92,84,30.30,29.26,17,3,17,0.00
2012-2-29,35,31,26,34,29,24,98,93,89,29.83,29.17,18,4,18,0.00
2012-3-1,35,29,23,31,26,22,97,91,85,29.84,29.73,10,1,11,0.00
2012-3-2,31,26,20,25,22,18,97,85,72,29.85,29.76,19,4,19,0.00
2012-3-3,27,23,15,22,18,13,93,83,76,29.98,29.84,17,4,17,0.00
2012-3-4,37,24,15,32,21,13,94,89,78,30.20,29.86,21,2,21,0.00
2012-3-5,52,36,18,36,28,16,96,76,52,30.21,29.72,22,3,22,0.00
2012-3-6,70,48,33,47,36,27,88,66,34,30.07,29.46,14,2,14,0.00
2012-3-7,52,36,28,48,32,23,95,83,73,30.13,29.42,19,4,19,0.00
2012-3-8,48,35,25,30,25,21,88,68,43,30.46,30.13,12,2,12,0.00
2012-3-9,52,37,21,34,26,17,84,64,47,30.56,30.06,18,3,18,0.00
2012-3-10,72,54,40,37,30,24,55,41,23,30.06,29.84,18,4,18,0.00
2012-3-11,60,50,43,47,38,29,96,66,47,29.89,29.64,18,4,18,0.00
2012-3-12,63,49,39,51,44,37,98,85,56,29.90,29.57,14,2,14,0.00
2012-3-13,78,54,32,51,41,31,99,66,28,29.94,29.66,18,3,18,0.00
2012-3-14,68,58,45,47,40,34,87,56,29,29.90,29.61,14,2,14,0.00
2012-3-15,76,56,34,47,39,30,87,57,35,30.00,29.85,12,1,12,0.00
2012-3-16,82,58,38,56,46,36,99,69,28,29.89,29.66,15,2,15,0.00
2012-3-17,80,68,59,61,58,54,94,73,46,29.68,29.52,24,4,24,0.00
2012-3-18,84,71,62,60,59,54,91,68,36,29.57,29.43,27,6,27,0.00
2012-3-19,71,63,54,63,57,51,94,82,61,29.57,29.41,22,4,22,0.43
2012-3-20,60,54,49,52,49,44,96,85,69,29.89,29.57,10,1,10,0.00
2012-3-21,68,56,47,56,50,43,96,79,58,29.97,29.85,9,1,9,0.05
2012-3-22,62,58,49,60,56,48,98,94,87,29.96,29.85,12,1,12,0.21
2012-3-23,70,53,39,53,43,38,100,74,35,29.95,29.85,7,0,7,0.01
2012-3-24,79,58,38,52,44,37,98,68,29,30.05,29.88,14,1,15,0.00
2012-3-25,53,42,37,43,38,35,93,85,65,30.12,30.05,11,1,11,0.00
2012-3-26,71,58,47,56,46,36,80,66,59,30.06,29.55,9,6,26,0.00
2012-3-27,68,61,45,56,44,35,89,55,41,29.86,29.51,17,4,22,0.02
2012-3-28,69,53,35,43,38,34,96,61,30,30.02,29.86,9,1,9,0.00
2012-3-29,71,57,45,58,47,37,95,70,49,29.91,29.63,15,2,15,0.01
2012-3-30,71,54,40,54,47,39,100,79,42,29.77,29.61,13,1,13,0.01
2012-3-31,85,65,50,57,49,40,97,63,22,29.70,29.52,11,2,11,0.00
2012-4-1,91,69,50,64,53,45,99,65,26,29.55,29.27,20,3,20,0.00
2012-4-2,87,67,51,65,57,45,93,72,38,29.78,29.32,16,4,16,0.00
2012-4-3,66,54,46,45,38,29,82,59,27,30.05,29.78,17,3,17,0.00
2012-4-4,66,54,39,34,29,26,67,42,23,30.02,29.85,15,1,15,0.00
2012-4-5,67,57,47,35,30,26,59,37,22,30.03,29.87,18,2,18,0.00
2012-4-6,67,54,41,36,30,26,63,42,25,30.10,29.84,23,4,23,0.00
2012-4-7,56,51,41,47,31,22,77,48,29,30.25,29.89,19,4,19,0.00
2012-4-8,64,50,32,30,23,15,72,38,17,30.29,30.13,17,2,17,0.00
2012-4-9,54,44,34,28,22,16,64,44,26,30.22,30.15,17,2,17,0.00
2012-4-10,52,39,28,21,19,15,71,46,26,30.34,30.21,12,2,12,0.00
2012-4-11,58,41,25,24,19,16,73,45,20,30.42,30.16,11,1,11,0.00
2012-4-12,51,45,40,43,33,18,84,64,36,30.16,29.82,17,2,17,0.14
2012-4-13,59,51,46,53,49,42,97,91,78,29.82,29.53,20,3,20,0.90
2012-4-14,71,56,39,55,49,38,99,79,46,29.77,29.35,18,2,19,0.02
2012-4-15,72,56,42,62,49,35,100,84,29,29.45,29.11,23,2,23,0.08
2012-4-16,44,39,32,39,34,31,94,83,70,30.22,29.46,20,4,25,0.02
2012-4-17,72,51,30,53,41,29,98,73,41,30.25,29.81,18,2,18,0.01
2012-4-18,62,55,46,47,42,28,95,63,35,29.97,29.87,10,2,10,0.00
2012-4-19,55,43,36,43,40,28,96,89,35,30.01,29.85,15,2,15,0.65
2012-4-20,60,47,32,40,36,29,98,69,40,30.15,29.97,9,1,9,0.00
2012-4-21,66,53,43,50,40,33,89,64,30,30.01,29.82,23,4,23,0.05
2012-4-22,60,49,37,41,36,32,90,65,37,30.25,30.01,14,2,14,0.00
2012-4-23,73,55,34,43,36,32,92,56,26,30.23,29.76,10,1,10,0.00
2012-4-24,89,68,44,55,45,39,91,51,19,29.75,29.43,6,0,6,0.00
2012-4-25,83,72,62,55,49,43,68,46,27,29.75,29.38,19,2,19,0.00
2012-4-26,68,58,47,48,38,25,80,49,25,30.04,29.75,15,2,15,0.00
2012-4-27,59,50,42,42,37,27,92,63,34,30.02,29.68,24,4,24,0.57
2012-4-28,55,46,39,48,42,37,95,86,73,30.08,29.80,16,2,16,0.16
2012-4-29,52,48,44,47,45,42,95,89,81,30.12,29.98,11,1,11,0.00
2012-4-30,72,60,46,54,49,44,97,71,47,29.99,29.67,14,1,14,0.00
2012-5-1,86,66,56,64,58,52,98,77,38,29.68,29.39,21,3,21,0.33
2012-5-2,81,67,49,67,60,49,100,80,54,29.66,29.50,9,1,9,0.01
2012-5-3,85,73,64,67,62,54,99,72,43,29.82,29.59,12,1,12,0.00
2012-5-4,76,65,58,67,59,54,96,82,69,29.87,29.72,20,1,20,0.34
2012-5-5,68,63,58,63,60,56,99,89,78,29.87,29.64,14,2,15,0.02
2012-5-6,66,60,50,64,56,46,99,86,60,30.04,29.68,18,2,18,0.69
2012-5-7,66,56,47,47,42,34,88,62,31,30.05,29.96,18,3,18,0.00
2012-5-8,60,55,50,48,40,28,84,60,35,30.05,29.87,15,3,15,0.01
2012-5-9,68,55,41,48,43,39,97,68,38,30.08,29.86,8,0,8,0.00
2012-5-10,85,67,48,55,49,42,81,55,32,29.86,29.57,17,3,17,0.00
2012-5-11,69,56,48,53,45,38,95,69,42,30.25,29.62,17,3,17,0.08
2012-5-12,72,57,44,46,39,30,96,57,25,30.36,30.24,7,0,7,0.00
2012-5-13,76,59,38,47,39,33,98,54,22,30.27,30.07,9,1,9,0.00
2012-5-14,86,68,49,50,43,36,78,45,19,30.07,29.85,10,1,11,0.00
2012-5-15,74,65,53,46,40,35,70,40,26,30.06,29.80,13,1,13,0.00
2012-5-16,79,63,41,43,39,35,96,49,23,30.11,29.82,14,2,14,0.00
2012-5-17,93,76,60,51,44,37,55,34,16,29.83,29.56,20,4,25,0.00
2012-5-18,93,81,66,60,54,48,65,41,23,29.61,29.48,26,4,26,0.00
2012-5-19,78,70,55,63,58,53,96,67,48,29.88,29.49,13,2,13,1.08
2012-5-20,68,58,50,54,48,44,97,72,43,30.19,29.76,13,2,14,0.41
2012-5-21,76,62,45,52,47,43,98,62,32,30.22,30.00,12,1,12,0.00
2012-5-22,86,73,59,58,51,45,62,47,37,29.95,29.45,8,4,24,0.00
2012-5-23,78,70,58,67,56,50,93,62,42,29.50,29.32,16,2,16,0.29
2012-5-24,66,59,56,58,55,50,99,86,60,29.73,29.33,10,0,10,0.59
2012-5-25,64,58,46,56,52,45,99,82,66,30.01,29.73,7,0,7,0.00
2012-5-26,83,65,59,76,60,55,90,86,77,29.98,29.62,15,2,15,0.01
2012-5-27,87,77,65,73,66,61,97,72,46,29.61,29.46,6,2,23,0.41
2012-5-28,71,64,53,64,53,43,98,71,38,29.79,29.52,6,2,16,0.00
2012-5-29,64,58,49,46,43,40,75,58,45,29.99,29.79,18,3,18,0.00
2012-5-30,57,48,40,48,44,38,97,84,55,30.04,29.93,10,0,10,0.65
2012-5-31,65,53,46,50,45,40,97,76,41,30.08,29.99,8,1,9,0.00
2012-6-1,68,55,42,55,48,40,99,78,45,29.99,29.76,12,1,13,0.00
2012-6-2,78,64,52,56,51,46,97,67,34,29.81,29.73,10,1,10,0.02
2012-6-3,90,72,56,64,57,48,79,59,39,29.77,29.60,12,1,12,0.00
2012-6-4,87,74,58,61,54,44,92,54,25,29.89,29.73,10,1,10,0.00
2012-6-5,88,74,54,60,53,48,83,51,33,29.91,29.78,8,0,8,0.00
2012-6-6,89,77,66,65,60,50,78,57,38,29.89,29.82,8,1,8,0.00
2012-6-7,87,77,67,66,61,58,74,58,40,29.97,29.84,12,1,12,0.00
2012-6-8,89,80,65,62,57,54,78,48,32,29.91,29.65,13,2,16,0.00
2012-6-9,90,80,68,64,58,53,63,49,36,29.65,29.43,19,3,19,0.00
2012-6-10,82,73,59,68,62,53,81,67,51,29.68,29.44,16,2,16,0.00
2012-6-11,74,65,57,55,49,40,88,58,34,30.03,29.64,19,3,19,0.00
2012-6-12,73,62,45,52,44,42,90,54,33,30.18,30.00,6,0,8,0.00
2012-6-13,81,68,56,60,56,50,92,66,45,30.02,29.65,15,3,23,0.30
2012-6-14,87,78,68,69,61,51,77,58,34,29.79,29.58,17,2,17,0.00
2012-6-15,86,72,60,64,59,54,88,65,40,29.90,29.79,11,1,11,0.00
2012-6-16,81,70,60,66,57,43,95,66,28,29.89,29.81,10,1,15,0.00
2012-6-17,92,76,54,72,61,48,86,62,43,29.89,29.28,22,2,22,0.00
2012-6-18,95,83,70,74,65,58,83,58,30,29.43,29.27,11,1,11,0.00
2012-6-19,94,85,76,74,71,69,79,64,48,29.51,29.36,21,3,21,0.00
2012-6-20,82,70,62,70,64,60,95,82,65,29.89,29.48,17,1,17,0.34
2012-6-21,79,68,55,60,55,51,92,66,41,30.05,29.89,12,1,12,0.00
2012-6-22,86,72,56,63,58,54,94,65,38,30.00,29.81,12,1,12,0.00
2012-6-23,86,74,64,70,64,58,90,73,57,29.83,29.71,15,2,15,0.10
2012-6-24,90,78,66,71,68,64,93,71,51,29.91,29.80,14,1,15,0.00
2012-6-25,86,76,66,68,65,60,84,68,50,29.99,29.82,13,2,14,0.00
2012-6-26,90,78,67,71,63,54,77,63,50,29.88,29.53,18,3,21,0.00
2012-6-27,97,85,74,79,73,69,87,69,48,29.66,29.44,10,1,11,0.00
2012-6-28,92,87,77,72,58,43,83,41,22,29.87,29.57,11,2,11,0.00
2012-6-29,92,80,69,75,65,58,77,62,42,29.80,29.70,8,0,8,0.00
2012-6-30,90,78,64,72,68,61,95,72,47,29.78,29.71,10,0,10,0.00
2012-7-1,95,83,73,75,71,66,92,69,39,29.78,29.69,10,1,15,0.00
2012-7-2,98,85,74,73,70,66,89,63,36,29.73,29.64,14,2,16,0.00
2012-7-3,100,86,75,75,72,67,80,63,42,29.68,29.56,11,1,11,0.00
2012-7-4,100,88,76,75,71,68,78,60,37,29.66,29.58,15,2,16,0.00
2012-7-5,94,83,76,76,74,69,96,75,52,29.81,29.66,10,1,10,0.32
2012-7-6,104,87,71,77,71,64,90,64,28,29.89,29.71,13,1,13,0.00
2012-7-7,87,75,66,65,63,60,87,67,44,30.08,29.89,12,1,12,0.00
2012-7-8,90,76,64,65,62,57,95,66,36,30.14,30.02,7,0,7,0.02
2012-7-9,89,77,63,68,62,55,92,63,38,30.08,30.02,9,1,11,0.00
2012-7-10,89,75,58,61,58,55,94,59,34,30.11,30.00,8,0,9,0.00
2012-7-11,89,76,59,64,60,56,91,59,37,30.06,29.90,11,1,14,0.00
2012-7-12,89,79,68,69,65,60,75,63,47,29.92,29.80,11,1,12,0.00
2012-7-13,96,82,64,68,62,57,88,56,29,29.90,29.83,6,0,6,0.00
2012-7-14,95,82,67,69,66,61,91,61,38,29.93,29.86,9,1,9,0.00
2012-7-15,98,84,73,71,68,65,81,60,37,29.92,29.74,17,2,17,0.00
2012-7-16,100,87,75,69,65,62,67,49,32,29.76,29.61,19,2,19,0.00
2012-7-17,100,87,73,73,69,66,78,58,35,29.70,29.60,11,1,12,0.00
2012-7-18,97,84,74,74,70,67,88,66,42,29.81,29.66,10,0,10,0.02
2012-7-19,99,84,68,75,71,66,98,68,36,29.92,29.81,8,1,8,0.00
2012-7-20,100,84,73,75,71,66,87,68,34,29.99,29.84,15,2,15,0.00
2012-7-21,94,85,77,71,69,66,76,60,42,29.93,29.78,17,1,17,0.00
2012-7-22,102,89,76,72,67,62,76,52,29,29.82,29.76,7,0,7,0.00
2012-7-23,99,86,78,75,69,60,68,58,40,29.86,29.73,13,1,13,0.00
2012-7-24,102,88,74,74,70,65,88,59,33,29.77,29.55,14,2,14,0.00
2012-7-25,95,84,72,74,69,65,86,62,44,29.62,29.46,13,1,13,0.00
2012-7-26,90,77,62,67,59,53,92,60,30,29.85,29.61,18,2,18,0.00
2012-7-27,85,72,60,62,59,58,93,66,42,30.01,29.85,8,1,9,0.00
2012-7-28,81,72,65,67,64,60,95,77,59,30.07,29.87,18,2,18,0.21
2012-7-29,92,78,66,71,66,61,88,68,45,29.89,29.83,7,0,9,0.00
2012-7-30,96,82,69,72,68,62,97,65,35,29.89,29.80,10,1,10,0.00
2012-7-31,96,78,63,66,63,61,92,65,34,29.92,29.81,10,1,10,0.00
2012-8-1,102,83,68,71,66,58,93,62,24,29.87,29.65,20,1,20,0.23
2012-8-2,90,78,65,70,65,57,97,69,33,29.78,29.74,8,1,9,0.00
2012-8-3,95,79,68,72,66,62,94,68,35,29.82,29.51,13,1,14,0.13
2012-8-4,102,77,61,66,59,51,96,60,30,30.01,29.67,14,2,18,0.34
2012-8-5,82,69,55,58,54,48,97,62,33,30.19,30.01,8,0,8,0.00
2012-8-6,99,79,63,69,61,54,75,57,29,30.05,29.81,11,1,11,0.00
2012-8-7,95,82,68,69,66,59,90,61,33,29.89,29.84,11,1,11,0.00
2012-8-8,87,75,65,69,64,60,89,70,43,29.95,29.79,11,1,14,0.03
2012-8-9,82,70,59,64,59,50,98,70,34,30.04,29.95,12,1,17,0.01
2012-8-10,79,66,54,58,54,52,94,69,41,30.12,30.01,8,0,8,0.00
2012-8-11,73,64,53,60,56,51,94,77,59,30.05,29.89,10,1,10,0.02
2012-8-12,69,62,59,61,58,57,93,86,74,30.01,29.82,10,1,11,0.06
2012-8-13,82,67,50,60,55,49,99,70,37,30.08,29.93,9,0,9,0.00
2012-8-14,85,71,54,62,58,53,98,67,37,29.94,29.70,12,1,12,0.00
2012-8-15,90,75,66,68,64,58,83,68,47,29.82,29.58,13,2,15,0.00
2012-8-16,73,64,54,58,50,45,88,64,40,30.06,29.82,17,3,17,0.00
2012-8-17,77,61,43,50,45,42,97,62,29,30.11,29.97,7,0,7,0.00
2012-8-18,73,61,54,58,52,45,97,75,51,30.01,29.92,10,0,10,0.79
2012-8-19,80,65,53,58,54,50,93,70,43,30.03,29.92,7,0,7,0.00
2012-8-20,81,66,51,57,52,46,98,65,31,29.97,29.90,8,0,8,0.00
2012-8-21,87,70,51,60,55,49,96,63,36,29.98,29.86,13,1,13,0.00
2012-8-22,94,79,65,63,58,53,79,50,26,29.87,29.69,17,2,20,0.02
2012-8-23,94,80,70,70,63,55,81,56,41,29.73,29.63,15,2,15,0.00
2012-8-24,88,77,66,70,67,64,93,73,51,29.75,29.68,15,2,15,0.00
2012-8-25,76,70,66,68,66,64,96,85,76,29.85,29.73,12,1,13,0.02
2012-8-26,88,72,62,69,62,51,100,75,30,29.99,29.84,5,0,5,0.00
2012-8-27,94,77,60,70,64,57,99,67,31,30.06,29.93,13,0,13,0.00
2012-8-28,99,82,69,68,65,61,89,60,32,29.98,29.72,22,2,22,0.01
2012-8-29,101,83,62,61,58,52,89,47,22,29.75,29.60,12,1,12,0.00
2012-8-30,104,82,68,65,55,44,65,42,14,29.86,29.61,11,1,13,0.00
2012-8-31,88,75,64,56,53,47,73,50,25,29.99,29.86,13,2,13,0.00
2012-9-1,93,78,63,69,60,51,69,56,43,29.98,29.83,11,1,12,0.00
2012-9-2,95,80,66,68,64,60,81,60,38,29.86,29.67,15,2,15,0.00
2012-9-3,93,78,63,66,61,53,91,59,28,29.93,29.72,20,1,20,0.38
2012-9-4,93,76,60,69,60,54,94,63,29,29.79,29.57,15,1,15,0.00
2012-9-5,77,68,55,57,52,44,85,60,31,29.89,29.66,14,1,14,0.00
2012-9-6,87,68,49,53,49,45,98,59,26,29.93,29.71,13,1,13,0.00
2012-9-7,71,64,52,54,49,42,78,61,38,30.07,29.76,13,2,13,0.00
2012-9-8,84,63,45,48,43,36,89,53,24,30.08,29.88,20,2,20,0.00
2012-9-9,78,62,44,51,45,41,93,58,30,30.19,30.00,7,0,7,0.00
2012-9-10,89,73,56,51,48,45,71,45,24,30.01,29.66,25,3,25,0.00
2012-9-11,97,79,67,53,50,47,51,38,22,29.81,29.60,17,2,17,0.00
2012-9-12,69,58,53,54,48,39,95,72,37,30.23,29.81,9,0,9,0.32
2012-9-13,77,62,44,56,46,38,99,64,25,30.34,30.21,10,1,10,0.00
2012-9-14,82,64,45,51,45,39,93,53,23,30.24,30.12,8,0,8,0.00
2012-9-15,86,68,50,49,44,40,85,46,20,30.12,29.91,15,2,15,0.00
2012-9-16,84,69,58,56,52,43,87,59,35,29.92,29.77,11,1,12,0.00
2012-9-17,65,55,45,48,43,36,88,65,37,30.04,29.90,13,1,13,0.00
2012-9-18,69,52,35,42,37,34,97,61,29,30.08,29.79,10,1,12,0.00
2012-9-19,74,62,50,46,38,26,78,44,21,29.92,29.68,18,3,20,0.00
2012-9-20,68,57,47,40,32,28,53,41,24,30.00,29.84,11,1,12,0.00
2012-9-21,70,60,51,39,37,33,56,43,30,29.97,29.76,17,1,17,0.00
2012-9-22,70,50,34,38,31,24,78,50,29,30.28,29.83,11,1,11,0.00
2012-9-23,67,48,29,34,30,26,92,56,24,30.36,30.14,8,0,9,0.00
2012-9-24,82,61,46,44,38,30,75,46,24,30.14,29.75,12,1,13,0.00
2012-9-25,81,61,44,46,40,37,84,53,22,29.91,29.77,6,0,6,0.00
2012-9-26,74,56,38,39,33,22,83,48,17,30.14,29.91,8,0,8,0.00
2012-9-27,76,54,34,41,34,31,88,53,20,30.22,30.10,5,0,5,0.00
2012-9-28,80,58,39,41,36,29,84,51,16,30.18,30.06,7,0,7,0.00
2012-9-29,84,61,40,46,39,36,90,53,20,30.12,29.96,7,0,7,0.00
2012-9-30,83,61,41,49,42,38,91,57,22,29.99,29.84,8,0,8,0.00
2012-10-1,70,60,46,54,43,34,81,56,34,30.00,29.86,13,2,13,0.00
2012-10-2,75,55,34,40,31,25,94,50,16,29.97,29.76,11,1,12,0.00
2012-10-3,80,62,44,41,34,25,73,38,19,29.87,29.62,18,2,19,0.00
2012-10-4,50,44,39,42,33,28,85,66,50,30.29,29.84,22,5,22,0.00
2012-10-5,49,39,31,28,24,20,80,57,37,30.31,30.23,17,2,22,0.00
2012-10-6,47,35,25,30,23,20,85,65,40,30.38,30.29,11,1,11,0.00
2012-10-7,59,41,23,29,22,18,86,52,22,30.30,29.87,11,1,12,0.00
2012-10-8,70,54,42,44,34,21,69,47,29,29.87,29.64,16,1,16,0.00
2012-10-9,54,47,36,45,33,25,83,59,43,30.07,29.74,18,3,20,0.00
2012-10-10,63,46,28,33,27,22,78,51,28,30.16,29.86,14,1,14,0.00
2012-10-11,54,45,30,36,30,23,80,57,42,30.40,29.85,16,1,16,0.00
2012-10-12,56,42,23,40,24,17,85,54,22,30.41,29.93,23,2,23,0.00
2012-10-13,74,58,49,54,48,38,89,69,45,29.93,29.58,13,1,13,0.00
2012-10-14,63,51,40,46,37,33,85,60,39,29.93,29.67,13,2,14,0.00
2012-10-15,74,53,33,44,37,30,92,59,31,29.94,29.62,12,2,13,0.00
2012-10-16,73,62,51,50,46,44,77,58,41,29.62,29.24,12,1,12,0.00
2012-10-17,66,52,44,52,42,31,86,69,46,29.44,29.11,24,5,24,0.01
2012-10-18,45,42,40,43,39,37,92,89,79,29.55,29.30,26,8,26,0.64
2012-10-19,43,41,39,40,39,37,94,90,86,29.79,29.55,21,4,21,0.08
2012-10-20,61,47,32,47,41,31,98,81,55,29.79,29.66,14,2,14,0.00
2012-10-21,68,54,44,49,44,40,91,73,48,29.87,29.62,13,1,13,0.00
2012-10-22,60,52,45,51,48,44,95,84,70,29.88,29.74,10,1,10,0.00
2012-10-23,61,56,48,56,53,46,98,90,81,29.76,29.61,8,0,9,0.00
2012-10-24,53,48,40,51,43,33,99,82,56,29.86,29.76,9,2,15,0.00
2012-10-25,40,35,32,35,31,27,96,86,70,30.33,29.80,17,4,17,0.19
2012-10-26,38,34,29,28,26,24,84,71,58,30.47,30.32,12,2,13,0.04
2012-10-27,42,34,27,33,28,22,91,76,64,30.39,30.25,12,2,13,0.01
2012-10-28,51,41,31,36,32,28,91,73,53,30.28,30.14,16,2,16,0.00
2012-10-29,55,46,38,35,33,30,73,61,45,30.17,30.07,17,3,17,0.00
2012-10-30,49,41,37,32,30,26,79,64,48,30.11,30.05,11,1,13,0.00
2012-10-31,60,42,27,38,32,25,93,68,42,30.06,29.95,10,0,10,0.00
2012-11-1,50,41,34,39,32,25,94,73,47,30.07,29.96,10,1,10,0.00
2012-11-2,42,37,32,31,28,25,76,70,61,30.15,29.99,10,1,11,0.00
2012-11-3,50,39,27,37,32,25,93,78,60,30.23,30.14,8,0,10,0.00
2012-11-4,47,40,33,41,37,31,96,90,75,30.19,30.05,7,0,7,0.19
2012-11-5,39,37,35,36,34,33,96,90,83,30.19,29.91,14,1,14,0.00
2012-11-6,51,42,36,38,35,32,93,77,57,30.07,29.85,16,4,22,0.01
2012-11-7,51,40,26,36,32,24,96,75,54,30.15,29.92,14,2,15,0.00
2012-11-8,58,45,39,40,35,31,90,68,45,29.97,29.82,19,2,19,0.00
2012-11-9,54,45,37,45,40,35,93,82,67,29.95,29.66,11,2,11,0.00
2012-11-10,54,48,30,53,45,27,96,91,81,29.69,29.42,17,2,18,0.19
2012-11-11,30,22,18,27,16,11,90,75,58,30.11,29.67,18,5,20,0.00
2012-11-12,32,23,18,17,15,12,86,71,48,30.36,30.10,20,3,20,0.00
2012-11-13,47,33,17,27,22,14,88,66,40,30.36,30.23,11,0,11,0.00
2012-11-14,52,39,23,33,28,21,91,68,43,30.28,30.11,9,1,9,0.00
2012-11-15,49,38,23,35,29,17,89,71,54,30.48,30.11,10,1,10,0.00
2012-11-16,49,33,15,34,24,13,94,71,48,30.49,30.23,16,2,17,0.00
2012-11-17,58,48,40,40,36,34,80,66,49,30.23,30.03,23,4,24,0.00
2012-11-18,59,48,38,39,36,31,76,63,48,30.03,29.93,15,3,16,0.00
2012-11-19,56,45,33,42,37,30,90,74,58,30.14,29.91,12,1,12,0.00
2012-11-20,59,42,25,38,32,23,96,70,36,30.20,29.97,15,2,15,0.00
2012-11-21,69,55,41,42,38,34,79,54,28,29.97,29.61,18,2,18,0.00
2012-11-22,54,42,26,40,32,18,82,69,57,30.25,29.58,23,5,24,0.00
2012-11-23,27,21,16,19,13,10,80,70,53,30.52,30.25,21,4,22,0.00
2012-11-24,39,30,16,24,18,11,83,62,45,30.42,29.86,18,2,18,0.00
2012-11-25,36,31,28,27,24,23,88,76,62,30.22,29.90,8,2,9,0.00
2012-11-26,29,21,14,24,13,8,81,71,59,30.50,30.22,9,1,9,0.00
2012-11-27,38,25,16,26,19,9,89,78,63,30.41,30.16,10,1,10,0.00
2012-11-28,44,29,14,29,21,12,95,74,50,30.38,30.03,19,1,19,0.00
2012-11-29,47,32,18,31,24,16,91,73,53,30.05,29.92,10,1,10,0.00
2012-11-30,42,32,21,33,27,19,93,83,69,30.15,29.93,12,1,12,0.00
2012-12-1,55,40,30,42,35,28,93,83,56,29.93,29.72,11,1,14,0.00
2012-12-2,61,42,24,43,34,22,96,76,47,29.98,29.65,18,2,18,0.00
2012-12-3,56,47,37,44,35,23,96,66,33,30.02,29.49,22,3,22,0.00
2012-12-4,47,36,26,29,24,16,68,59,49,30.34,30.01,6,1,7,0.00
2012-12-5,52,38,22,30,23,15,75,57,36,30.33,29.73,23,4,23,0.00
2012-12-6,52,42,35,36,29,24,70,60,36,30.00,29.73,14,2,14,0.01
2012-12-7,35,31,28,28,25,23,92,79,65,30.03,29.94,9,0,10,0.00
2012-12-8,32,29,26,31,27,24,96,92,89,30.03,29.81,13,2,13,0.00
2012-12-9,33,21,3,32,18,-2,96,88,77,30.18,29.76,20,4,20,0.00
2012-12-10,22,10,-4,18,5,-7,86,80,67,30.18,29.91,13,1,13,0.00
2012-12-11,35,25,18,27,21,15,95,85,68,29.96,29.90,9,1,10,0.00
2012-12-12,48,35,26,27,22,19,79,60,42,29.90,29.78,16,2,16,0.00
2012-12-13,34,27,20,24,20,16,93,77,61,30.12,29.82,8,1,9,0.00
2012-12-14,43,33,21,36,26,18,91,78,61,30.11,29.62,10,1,10,0.00
2012-12-15,42,34,24,38,33,21,98,95,77,29.71,29.49,11,2,11,0.00
2012-12-16,27,23,18,25,21,15,95,92,87,29.85,29.71,8,1,8,0.00
2012-12-17,28,26,22,27,23,20,95,92,87,29.84,29.60,9,0,9,0.00
2012-12-18,31,27,17,29,26,15,96,93,88,29.88,29.52,11,1,11,0.00
2012-12-19,31,21,12,25,18,10,95,87,76,30.08,29.87,10,2,10,0.00
2012-12-20,19,16,7,16,12,4,89,85,79,30.27,30.04,18,4,18,0.00
2012-12-21,26,15,2,17,10,0,92,80,63,30.37,30.17,9,1,9,0.00
2012-12-22,28,18,10,21,14,6,93,84,75,30.16,30.00,9,1,10,0.00
2012-12-23,19,12,6,12,8,2,88,83,73,30.16,30.07,9,1,9,0.00
2012-12-24,13,8,-1,10,4,-5,88,81,72,30.44,30.08,11,2,11,0.00
2012-12-25,9,3,-3,3,-2,-7,84,80,74,30.64,30.44,8,1,8,0.00
2012-12-26,19,9,2,8,4,-1,87,78,59,30.50,30.26,8,0,8,0.00
2012-12-27,21,17,11,18,14,8,92,89,84,30.26,30.10,9,1,9,0.00
2012-12-28,19,15,6,16,12,3,92,88,81,30.17,30.07,7,1,7,0.00
2012-12-29,16,9,0,13,6,-2,92,89,86,30.26,30.15,7,0,8,0.00
2012-12-30,29,13,0,22,9,-3,96,84,73,30.25,29.94,10,1,11,0.00
2012-12-31,22,16,8,17,11,3,91,81,71,30.33,30.19,11,2,11,0.00
2013-1-1,22,15,8,19,12,3,93,87,78,30.33,30.07,11,1,11,0.00